Retour au catalogue

DELTA 1 DEB

ActifSSO
NORAD 13827·DEBRIS·🇺🇸 United States

Lancé Mar 5, 1978 depuis Vandenberg Space Force Base

Loading…

Prochains Passages (prochaines 24 heures)

TLE

FraisSource: Space-Track

Époque: Sep 14, 2026, 12:01 UTC

1 13827U 78026FW  26257.50084728  .00001211  00000-0  23879-3 0  9997
2 13827  98.4138 275.5420 0059351 226.5352 291.3349 14.63321354293310

Suivez DELTA 1 DEB en temps réel avec AllMySat

Download on the App Store